Theta_e
350 349 348 350 368 365 368 367 358 356 354 348 348 349 353 352 355 356 342 344 344 346 346 347 348 350 351 351 351 350 351 349 350 349 350 350 349 348 347 351 351 348 351 349 349 347 346 347 348
347 349 349 357 369 370 367 361 361 353 350 351 353 353 354 354 344 344 343 346 344 346 346 348 348 349 351 350 350 352 351 350 351 349 351 351 351 351 350 349 349 350 350 349 348 348 348 349 349
348 351 358 364 362 367 365 360 359 351 349 354 355 350 351 350 343 342 344 346 346 349 348 348 348 349 351 350 351 351 351 350 349 351 351 351 350 352 351 351 351 350 350 350 349 348 348 348 348
350 349 352 367 363 360 360 358 354 353 355 353 351 351 344 342 342 343 346 347 347 350 348 348 350 351 351 350 352 351 351 350 350 349 351 351 351 351 352 352 350 344 347 349 350 349 344 343 343
346 356 362 364 361 357 356 355 354 356 358 353 350 350 349 343 344 346 347 348 348 350 348 348 349 350 351 351 351 351 350 350 349 352 350 351 352 350 350 352 352 351 350 346 348 349 343 342 343
358 348 352 360 359 356 354 359 356 358 352 348 348 348 347 345 347 348 348 350 348 348 347 348 349 350 352 352 351 350 350 350 349 350 348 351 350 350 351 352 352 351 351 350 342 343 340 341 342
352 347 354 358 359 355 357 358 357 357 352 350 345 349 346 347 348 348 348 349 349 349 347 348 349 350 352 351 352 350 351 351 350 349 347 348 348 349 350 351 352 352 345 346 341 341 339 340 342
352 349 356 355 356 358 354 357 355 356 356 344 343 349 351 345 348 348 349 349 349 348 347 347 348 350 350 352 352 351 350 351 348 346 347 347 350 351 353 350 352 346 347 343 341 341 339 340 344
351 359 360 359 356 355 353 357 356 352 348 350 345 344 344 346 349 350 350 351 349 347 346 347 349 349 346 351 350 351 350 351 347 348 346 345 346 348 348 348 351 351 349 342 343 341 341 341 343
357 359 358 353 350 351 356 355 357 356 353 350 346 345 345 348 349 347 347 348 351 350 348 348 349 346 347 350 350 350 351 347 345 348 347 345 344 342 343 345 345 346 344 343 343 343 341 342 343
356 360 358 354 346 349 355 356 355 356 357 349 349 347 344 349 347 346 346 346 347 348 347 348 348 344 348 351 348 347 347 344 345 347 345 347 346 343 343 343 344 344 344 346 345 344 344 343 343
355 353 356 355 352 349 351 350 357 355 355 347 345 345 345 349 347 346 346 346 347 348 349 347 347 343 347 350 345 343 344 342 343 342 344 347 346 346 343 342 343 344 347 347 347 345 345 346 344
348 348 347 351 348 346 346 353 357 356 349 344 344 344 345 348 347 347 347 347 348 349 349 346 344 340 342 348 342 340 341 342 342 341 339 343 346 345 345 344 346 346 346 345 345 345 345 345 345
334 341 341 340 339 342 347 350 355 353 347 345 346 345 344 348 348 348 348 348 349 349 348 345 341 338 336 342 338 337 339 342 345 343 344 342 343 343 341 345 344 347 346 345 345 343 345 343 345
327 326 327 330 337 344 348 358 360 351 347 346 347 346 344 347 348 348 349 348 347 347 346 343 339 337 334 335 334 334 336 343 345 341 341 346 347 347 343 346 347 347 348 346 344 345 344 342 339
324 325 329 330 332 341 345 350 358 348 348 347 347 346 346 347 347 347 349 348 347 346 346 343 340 336 335 335 334 334 338 344 347 348 348 346 349 348 348 347 347 347 348 345 344 344 344 343 339
317 328 328 332 333 346 345 349 357 347 348 347 346 346 346 347 347 346 348 349 348 346 345 344 342 336 336 335 337 338 341 344 345 346 346 348 349 350 348 349 348 349 348 349 345 345 344 343 341
323 322 328 334 335 344 349 350 357 349 348 349 346 345 346 347 347 346 347 348 349 348 345 344 344 336 338 339 344 345 346 345 345 347 347 346 349 350 350 347 348 348 349 345 344 345 346 342 341
322 325 328 330 335 348 349 348 360 354 349 347 346 345 345 346 345 347 347 347 348 348 347 346 346 340 341 345 346 346 347 348 346 347 346 348 348 349 350 347 349 348 348 347 342 345 344 345 344
320 321 323 325 331 344 346 349 358 356 354 349 347 346 346 346 346 346 347 347 347 347 346 346 346 340 341 345 346 347 347 348 345 345 345 348 349 348 348 350 349 348 348 348 348 346 345 337 339
316 320 320 326 329 345 346 351 359 359 356 353 351 347 345 346 348 347 346 347 347 346 346 345 346 343 341 343 345 347 347 348 347 347 347 348 348 347 347 348 347 349 349 349 348 348 345 339 337
313 317 321 322 325 334 342 346 352 358 360 356 354 352 350 348 347 347 347 346 346 346 346 346 346 345 343 343 344 346 347 346 346 346 347 346 345 347 347 348 349 348 350 348 348 348 346 345 336
316 318 319 321 324 329 333 348 345 354 362 360 356 353 351 350 348 347 346 346 346 345 345 346 346 345 344 343 344 345 348 346 345 345 345 346 345 345 347 348 350 350 350 350 349 349 348 347 338
319 323 321 322 322 328 326 339 332 352 355 355 355 353 353 351 349 347 346 346 346 346 344 345 345 345 345 345 345 345 346 347 345 344 344 345 345 345 345 348 350 350 351 350 349 350 350 348 346
321 320 324 326 326 329 324 328 331 333 347 348 350 351 350 352 351 349 347 346 346 346 345 345 345 345 345 345 345 345 345 345 345 344 343 342 344 345 344 346 350 350 350 351 349 350 350 348 346
322 321 323 328 328 326 323 329 329 328 337 342 344 346 346 349 350 350 349 348 346 346 346 345 345 345 345 345 345 345 345 344 344 344 344 340 339 342 345 344 345 349 349 351 353 349 351 351 351
324 325 322 322 320 324 326 324 324 325 329 334 341 342 344 345 347 348 348 348 348 346 346 345 345 345 345 345 345 345 345 345 344 345 345 343 339 341 344 344 343 344 347 348 352 352 350 350 350
319 323 329 322 329 326 324 323 332 326 327 331 339 344 343 343 344 345 346 345 348 347 346 346 345 345 346 346 346 346 346 345 345 345 346 345 344 342 344 345 346 344 344 345 348 354 353 351 351
320 321 324 327 324 329 323 324 319 325 328 329 334 342 342 343 343 343 343 343 345 348 347 346 345 345 346 346 346 347 347 346 346 346 346 346 345 345 344 345 345 344 344 345 347 350 354 354 353
318 320 322 332 329 323 323 329 322 322 324 327 329 337 341 342 342 342 342 340 343 347 348 347 345 345 346 346 347 347 347 347 347 347 346 346 346 346 343 344 345 345 345 344 347 349 351 353 354
Wind_Speed
12 12 10 3 2 1 3 0 2 4 4 2 12 5 7 4 2 2 18 20 28 29 25 22 21 20 18 17 17 17 16 15 15 14 13 13 13 12 12 13 13 13 12 12 13 13 12 11 11
14 11 2 2 1 1 2 3 4 3 6 12 9 9 3 3 3 9 14 29 32 30 26 23 21 20 18 17 17 16 16 15 15 14 13 12 13 12 11 13 12 13 11 12 12 12 12 12 11
15 6 2 2 1 1 2 1 3 8 20 9 5 7 3 4 6 21 14 32 33 30 27 22 22 20 18 17 16 16 15 14 14 14 12 12 12 12 11 12 12 11 11 11 12 12 12 12 10
7 2 3 2 2 3 3 4 8 14 8 7 10 8 3 4 17 12 34 33 33 30 27 22 20 19 18 17 16 15 15 14 13 11 12 12 11 11 11 10 10 12 11 11 11 10 13 12 12
2 2 1 3 2 2 1 1 5 10 6 7 3 4 4 7 8 31 30 32 34 30 27 23 20 18 18 15 14 14 14 14 12 11 11 10 10 10 10 9 9 10 10 11 11 10 11 12 11
2 2 1 2 2 1 2 4 5 5 6 8 7 8 4 17 25 26 29 30 32 30 27 23 19 18 17 15 14 13 13 13 12 12 11 10 10 10 9 8 8 9 9 10 11 10 11 11 10
3 3 2 2 4 2 1 3 7 5 7 4 14 5 3 17 22 28 30 29 31 28 27 23 20 17 16 16 15 13 13 12 11 11 10 11 9 9 9 8 8 8 10 10 11 10 11 11 9
3 2 1 4 1 1 0 2 4 8 2 13 11 8 8 17 24 30 31 30 28 26 26 24 21 18 17 15 13 13 12 12 11 10 10 10 9 7 7 8 7 9 10 10 12 11 11 11 9
4 1 3 4 2 2 5 5 2 6 13 6 7 7 19 28 29 28 26 25 27 25 25 24 22 20 18 16 13 12 11 11 10 10 9 8 8 7 6 7 6 6 7 10 10 11 11 9 8
3 2 5 4 3 2 4 6 9 7 12 3 10 22 32 28 28 27 26 24 24 24 26 25 22 21 19 15 14 14 13 12 12 10 9 8 7 7 6 5 5 5 8 8 8 11 10 9 7
5 5 4 2 3 6 7 4 4 13 5 8 24 25 24 30 28 26 26 25 25 24 27 26 23 21 20 17 15 14 14 13 12 8 7 7 7 5 5 6 6 6 6 6 7 8 8 8 8
4 8 9 5 5 1 5 6 4 10 4 15 24 30 24 25 25 28 27 27 25 24 26 28 24 22 20 17 15 15 14 14 11 9 8 8 6 6 5 6 6 5 5 5 4 5 6 6 6
9 3 3 6 8 8 6 7 5 11 9 19 23 22 20 21 27 26 26 26 25 24 29 30 26 23 22 18 16 15 15 13 11 9 7 8 7 5 5 6 4 4 4 4 5 5 4 4 7
6 8 10 8 8 7 5 3 6 5 17 19 25 24 19 19 26 23 25 27 28 27 32 31 28 25 23 20 18 17 15 13 11 8 7 7 7 5 4 6 4 3 6 5 3 4 4 4 5
4 4 4 6 4 6 3 2 5 12 17 21 21 21 19 17 27 27 29 29 33 34 34 33 29 26 24 22 19 17 16 14 13 10 9 7 6 4 5 4 5 2 3 4 4 7 3 3 3
5 4 1 4 9 6 10 9 3 13 18 20 21 20 19 18 25 26 27 27 31 32 34 33 31 28 25 23 20 18 16 15 13 11 10 9 6 7 6 5 6 5 2 4 3 3 4 5 2
5 4 7 3 7 3 9 5 9 14 15 18 19 20 19 16 20 25 26 28 30 34 36 34 33 30 27 24 21 19 16 16 15 14 14 13 11 8 7 5 7 5 2 3 2 1 3 5 4
5 4 4 6 7 8 7 8 13 15 16 17 18 19 19 19 20 25 25 27 28 32 35 35 34 32 30 27 23 19 17 17 19 17 16 17 15 12 10 7 5 6 3 3 1 1 7 7 5
5 5 6 4 5 6 11 10 15 16 13 15 17 17 19 19 21 24 26 28 28 30 33 35 35 35 31 30 26 23 21 16 15 13 14 16 16 13 11 9 7 5 2 6 3 1 5 7 7
7 3 4 4 3 6 6 14 10 18 22 20 18 19 19 17 18 23 26 30 31 33 36 37 37 37 35 33 30 26 24 19 16 16 15 16 16 14 13 11 9 5 4 5 6 2 3 4 7
8 16 6 3 2 7 4 5 6 12 8 13 15 17 16 20 21 19 25 29 30 32 36 39 40 39 38 35 31 25 23 22 19 16 15 16 17 16 15 13 10 8 6 4 5 4 4 3 5
9 15 12 7 2 4 8 5 5 8 17 17 18 18 17 20 19 17 23 27 32 34 34 38 41 41 39 37 33 32 27 24 25 23 18 16 12 17 17 14 11 9 6 6 5 5 5 3 6
11 9 14 12 6 4 4 3 6 11 12 19 21 21 20 19 21 22 24 31 31 29 34 36 40 42 40 40 37 35 31 25 24 25 22 19 17 15 18 16 13 10 10 8 8 8 8 7 7
6 1 4 3 4 9 12 7 5 7 16 18 20 20 21 21 22 21 30 31 31 32 31 33 38 41 43 42 41 39 36 33 27 25 25 25 22 19 19 19 16 13 11 10 10 9 9 10 9
13 10 2 3 5 13 11 12 13 5 12 18 21 23 22 21 20 21 21 26 31 33 32 32 36 40 40 41 42 42 41 39 38 33 31 31 29 24 22 21 20 18 14 12 12 12 11 12 12
14 10 6 8 4 12 6 8 7 20 10 12 18 18 16 18 19 21 22 29 32 34 36 35 37 38 39 42 43 42 42 41 39 35 30 30 31 29 23 22 23 21 19 16 15 14 15 15 15
7 17 11 4 1 1 9 5 7 6 19 18 14 11 18 22 22 24 20 31 33 35 38 38 38 38 41 44 44 41 42 42 41 39 33 29 28 28 25 23 22 23 23 21 19 18 18 19 18
8 3 7 3 7 5 3 7 10 11 10 13 7 13 17 21 23 18 20 30 36 39 39 39 42 42 42 43 41 41 42 44 44 41 37 32 29 26 25 23 25 25 24 25 24 23 22 22 21
4 9 5 7 8 8 2 6 6 12 15 15 13 15 16 19 22 22 21 31 36 36 38 40 41 39 37 40 41 38 40 41 42 43 41 36 32 28 29 28 25 24 24 24 26 27 26 25 24
5 5 7 8 12 6 4 7 4 10 9 12 16 16 17 20 22 21 20 25 31 37 39 41 40 39 40 41 41 40 40 40 41 43 43 39 35 30 30 29 26 25 25 26 25 27 29 28 29
Wind_Direction
158 166 166 203 227 233 269 138 97 99 97 130 138 145 150 49 156 170 150 144 147 146 144 140 137 131 130 130 126 125 121 122 123 121 125 127 130 130 129 121 119 118 112 105 100 104 114 113 114
161 157 207 274 279 274 334 6 30 136 118 110 82 105 81 91 97 120 136 148 151 149 147 144 141 136 132 128 127 122 123 121 122 124 123 122 127 127 126 123 120 118 114 105 103 103 104 106 112
164 171 280 257 170 205 242 73 322 116 142 130 103 44 60 104 114 142 156 153 153 151 152 144 142 138 134 130 130 127 124 127 123 123 123 124 126 129 123 120 121 121 114 108 101 100 102 101 108
154 198 259 266 228 225 211 336 118 122 91 51 105 75 82 266 149 160 151 155 154 152 154 148 143 140 138 136 133 128 127 123 117 116 120 128 124 123 127 125 125 114 109 103 101 101 102 105 108
243 211 283 282 258 258 188 111 125 130 86 59 25 107 80 104 155 142 152 156 154 155 154 150 145 145 142 143 135 131 131 129 120 125 119 120 115 117 116 123 121 111 108 105 103 107 114 113 107
191 95 125 238 256 280 5 33 128 96 112 133 98 113 122 138 138 146 155 155 155 156 159 153 151 150 147 145 141 134 132 132 123 117 119 111 114 117 119 122 118 111 107 103 108 118 126 119 112
174 129 234 266 242 157 209 359 140 116 133 140 143 100 113 147 149 152 156 157 154 162 161 158 157 155 152 151 148 141 142 138 126 121 119 119 116 117 120 120 117 117 104 97 109 115 121 124 119
156 125 276 244 272 198 202 88 149 100 96 129 142 162 169 160 152 156 156 157 160 165 164 163 160 160 161 153 154 148 146 143 137 133 131 130 128 126 132 129 125 107 97 92 103 116 129 123 106
138 288 237 251 201 160 150 148 67 125 142 177 184 141 142 149 151 148 151 156 162 167 169 167 166 167 164 160 157 152 151 147 142 138 138 140 137 144 139 131 117 108 99 100 105 111 124 124 113
203 190 226 221 166 167 157 172 132 147 156 83 101 118 141 149 153 159 163 164 163 168 174 172 172 173 168 167 162 163 160 157 153 149 138 136 137 143 148 142 128 118 111 102 103 109 118 131 126
186 215 222 304 117 153 150 140 140 145 208 178 150 148 154 155 163 167 167 170 173 174 178 179 177 177 175 176 172 172 169 165 159 162 161 162 153 161 165 160 154 140 121 124 126 131 138 136 128
210 228 261 310 351 269 176 149 152 173 215 155 163 158 157 164 169 170 171 172 175 178 182 182 183 184 182 181 182 178 177 173 172 167 165 166 170 173 172 170 166 154 140 124 121 132 125 153 174
234 209 258 247 292 287 162 172 182 204 114 141 151 156 162 165 170 174 171 171 176 181 186 186 187 190 189 187 189 186 184 183 180 183 198 193 176 175 191 186 178 130 124 134 117 113 117 186 198
221 238 279 286 272 281 226 148 158 117 135 147 156 162 167 172 173 170 173 174 179 184 189 189 192 193 194 195 195 194 194 191 191 181 178 179 180 198 210 225 207 157 129 138 147 142 99 111 141
260 312 319 231 225 231 188 280 220 142 145 153 164 165 170 176 177 181 181 179 182 190 189 192 194 196 198 201 200 200 201 198 198 197 200 206 198 196 189 183 166 160 95 126 147 116 144 127 127
180 113 193 276 182 241 151 239 119 148 148 165 167 174 177 184 188 186 186 182 187 189 192 195 197 200 200 203 202 201 204 209 213 218 222 217 218 214 206 203 195 187 134 112 153 104 123 141 183
358 195 197 285 200 158 182 222 158 163 164 173 176 177 182 184 190 192 191 188 189 194 194 198 199 202 201 202 203 203 210 223 230 232 235 229 230 233 229 219 189 196 187 142 184 154 106 145 154
203 220 222 174 207 183 196 220 161 173 171 181 179 185 186 191 192 191 191 191 191 199 200 200 201 204 203 204 208 212 221 238 242 244 230 231 231 226 229 212 206 197 144 188 159 156 127 160 150
167 196 216 212 204 141 201 222 178 177 180 185 185 189 195 197 190 191 190 192 191 199 203 204 205 205 204 206 211 217 222 225 226 213 215 218 220 223 221 220 221 222 207 187 194 38 104 150 166
232 240 252 289 226 176 214 232 178 179 197 193 185 191 199 190 195 194 192 191 194 195 204 206 208 207 206 208 211 214 214 217 214 211 214 216 217 220 223 227 223 205 199 180 193 221 161 137 164
219 229 227 209 351 211 136 292 179 199 189 196 203 210 195 197 192 194 194 194 195 196 198 206 210 209 210 211 213 215 218 220 214 206 206 210 222 227 227 228 227 217 223 202 193 196 196 153 168
213 216 239 254 320 218 167 259 234 184 197 202 204 205 200 198 199 195 196 198 200 202 200 205 211 211 212 213 214 214 209 209 218 213 207 208 220 225 226 228 229 231 232 223 224 210 212 214 184
236 162 206 230 212 298 226 197 257 186 202 209 207 208 206 202 199 197 201 202 203 200 202 203 209 213 214 216 216 216 214 221 222 224 221 218 223 228 227 230 234 238 236 240 238 223 226 228 214
175 332 136 117 138 236 226 213 255 191 210 214 213 211 204 202 203 201 202 200 203 205 204 203 205 210 215 218 219 220 217 220 223 224 227 226 228 227 229 230 235 241 242 240 236 237 236 234 239
180 157 267 228 201 234 207 223 233 197 220 210 204 209 206 201 203 200 195 198 201 200 203 201 204 206 210 213 219 218 220 225 230 232 230 229 229 228 229 229 232 238 241 237 238 239 240 236 240
202 180 170 196 192 228 182 225 238 225 239 218 215 210 198 199 205 202 200 199 199 203 201 198 201 204 204 210 215 220 221 225 230 234 234 233 231 232 232 233 234 237 240 240 241 245 241 236 243
211 210 194 99 240 178 202 243 295 243 220 229 222 178 195 199 201 204 197 201 200 200 201 200 201 207 203 209 214 216 221 223 228 234 234 235 232 231 235 237 237 239 241 241 240 242 243 241 250
196 259 197 198 196 241 263 193 228 198 224 234 207 193 205 201 207 204 200 197 200 200 200 200 204 203 203 208 211 213 218 226 230 234 234 234 234 231 232 236 239 242 242 243 240 240 244 247 254
189 226 267 179 200 213 172 245 217 192 200 222 209 211 203 202 200 202 199 196 197 196 197 200 200 202 202 202 207 208 214 220 224 231 235 235 236 233 232 237 240 242 244 246 242 241 243 244 251
318 278 236 224 221 234 146 247 207 210 213 223 215 206 207 204 203 202 198 193 190 193 194 197 199 199 200 203 203 207 213 216 219 227 234 235 235 232 231 232 235 239 244 247 246 244 244 245 247